DW9516 Carolina PR US current weather conditions

sailwx.info

Wind from 070 at 7 knots gusting 16

Air temperature 28.3° C
Dewpoint 22.6° C

Last reported at 2019-Dec-12 17:50 UTC.
Time now 2019-Dec-12 18:22 UTC

Location: N 18°21' W 066°11'.
View on Google Maps.

See reports from other nearby stations

  
Tides and Currents Weather Stations Pressure Air Temp Water Temp Dewpoint Dewpoint Depression Visibility Wind Speed Wind Dir Waves Ship Positions
date/time (UTC)wind fromknots sea level pressurealtimeterstation pressurevisibilityair tempwater tempwave heightnotes
2019-Dec-12 17:50 070 7 gusting 16 28.3
2019-Dec-12 17:40 001 6 gusting 13 28.3
2019-Dec-12 17:35 054 4 gusting 13 28.3
2019-Dec-12 17:25 050 4 gusting 13 28.3
2019-Dec-12 17:20 288 5 gusting 14 27.8
2019-Dec-12 17:10 331 6 gusting 15 27.8
2019-Dec-12 17:05 034 6 gusting 13 27.8
2019-Dec-12 17:00 058 5 gusting 12 27.8
2019-Dec-12 16:55 235 6 gusting 13 27.8
2019-Dec-12 16:50 015 7 gusting 17 27.2
2019-Dec-12 16:45 277 4 gusting 19 26.7
2019-Dec-12 16:40 250 10 gusting 19 26.7
2019-Dec-12 16:32 347 7 gusting 24 27.2
2019-Dec-12 16:26 044 7 gusting 21 27.2
2019-Dec-12 16:21 175 11 gusting 20 26.7
2019-Dec-12 16:18 006 13 gusting 22 26.7
2019-Dec-12 16:10 030 11 gusting 23 26.7
2019-Dec-12 16:05 135 9 gusting 21 26.7
2019-Dec-12 16:03 037 9 gusting 16 26.7
2019-Dec-12 15:56 264 6 gusting 14 26.1
2019-Dec-12 15:50 048 6 gusting 17 26.1
2019-Dec-12 15:47 356 5 gusting 14 25.6
2019-Dec-12 15:40 003 8 gusting 15 26.1
2019-Dec-12 15:35 040 9 gusting 19 26.1
2019-Dec-12 15:33 029 11 gusting 19 26.1
2019-Dec-12 15:25 011 3 gusting 13 26.1
2019-Dec-12 15:20 018 6 gusting 19 26.1
2019-Dec-12 15:17 059 7 gusting 19 25.6
2019-Dec-12 15:10 020 8 gusting 19 25.6
2019-Dec-12 15:06 049 10 gusting 18 25.6
2019-Dec-12 15:02 089 7 gusting 26 25.6
2019-Dec-12 14:56 255 6 gusting 26 25.6
2019-Dec-12 14:51 006 4 gusting 15 25.0
2019-Dec-12 14:48 324 6 gusting 20 25.0
2019-Dec-12 14:41 002 8 gusting 20 25.0
2019-Dec-12 14:36 053 8 gusting 15 25.0
2019-Dec-12 14:32 172 1 gusting 11 25.0
2019-Dec-12 14:25 292 2 gusting 12 24.4
2019-Dec-12 14:20 007 5 gusting 14 24.4
2019-Dec-12 14:17 044 8 gusting 16 23.9
2019-Dec-12 14:10 044 8 gusting 16 23.9
2019-Dec-12 14:05 346 6 gusting 13 24.4
2019-Dec-12 14:02 001 7 gusting 13 24.4
2019-Dec-12 13:55 020 6 gusting 14 23.9
2019-Dec-12 13:50 011 6 gusting 14 23.9
2019-Dec-12 13:46 032 4 gusting 11 23.9
2019-Dec-12 13:40 028 2 gusting 10 24.4
2019-Dec-12 13:35 025 3 gusting 10 24.4
2019-Dec-12 13:31 063 3 gusting 13 23.9
2019-Dec-12 13:25 026 6 gusting 13 23.9
2019-Dec-12 13:21 281 3 gusting 10 23.3
2019-Dec-12 13:15 018 4 gusting 10 23.3
2019-Dec-12 13:10 233 1 gusting 9 23.3
2019-Dec-12 13:05 002 3 gusting 9 23.3
2019-Dec-12 13:02 032 1 gusting 7 23.3
2019-Dec-12 12:55 068 2 gusting 6 22.8
2019-Dec-12 12:50 357 2 gusting 9 22.8
2019-Dec-12 12:46 036 5 gusting 9 22.8
2019-Dec-12 12:40 348 0 gusting 6 22.8
2019-Dec-12 12:35 301 0 gusting 6 22.8
2019-Dec-12 12:31 316 0 gusting 7 22.8
2019-Dec-12 12:25 269 0 gusting 9 22.2
2019-Dec-12 12:20 314 3 gusting 12 22.2
2019-Dec-12 12:15 038 3 gusting 12 21.7
2019-Dec-12 12:10 351 6 gusting 11 21.7
2019-Dec-12 12:05 354 4 gusting 7 21.7
2019-Dec-12 12:01 064 3 gusting 7 21.1
2019-Dec-12 11:56 034 3 gusting 13 21.7
2019-Dec-12 11:51 053 6 gusting 24 21.7
2019-Dec-12 11:46 032 11 gusting 24 21.7
2019-Dec-12 11:40 027 3 gusting 8 21.7
2019-Dec-12 11:35 029 3 gusting 7 21.7
2019-Dec-12 11:31 015 3 gusting 7 21.7
2019-Dec-12 11:25 043 21.7
2019-Dec-12 11:20 320 21.7
2019-Dec-12 11:16 256 0 gusting 6 21.7
2019-Dec-12 11:10 020 2 gusting 6 21.7
2019-Dec-12 11:05 037 0 gusting 7 21.7
2019-Dec-12 11:01 035 2 gusting 7 21.7
2019-Dec-12 10:55 034 3 gusting 6 21.7
2019-Dec-12 10:50 025 1 gusting 3 21.7
2019-Dec-12 10:46 051 0 gusting 1 21.7
2019-Dec-12 10:40 028 21.7
2019-Dec-12 10:35 040 0 gusting 3 21.7
2019-Dec-12 10:31 044 21.7
2019-Dec-12 10:25 061 0 gusting 7 21.7
2019-Dec-12 10:20 025 3 gusting 7 21.7
2019-Dec-12 10:16 041 0 gusting 3 21.7
2019-Dec-12 10:10 051 21.1
2019-Dec-12 10:05 050 21.1
2019-Dec-12 10:00 059 21.1
2019-Dec-12 09:55 018 21.1
2019-Dec-12 09:50 034 21.1
2019-Dec-12 09:46 030 1 gusting 4 21.1
2019-Dec-12 09:40 039 21.1
2019-Dec-12 09:35 051 21.1
2019-Dec-12 09:30 027 21.1
2019-Dec-12 09:25 063 21.1
2019-Dec-12 09:20 046 21.1
2019-Dec-12 09:15 030 21.1
2019-Dec-12 09:10 030 21.1
2019-Dec-12 09:05 032 21.1
2019-Dec-12 09:01 030 21.7
2019-Dec-12 08:55 011 21.7
2019-Dec-12 08:50 356 21.7
2019-Dec-12 08:45 331 21.7
2019-Dec-12 08:40 001 0 gusting 10 21.7
2019-Dec-12 08:35 284 3 gusting 15 21.7
2019-Dec-12 08:30 015 7 gusting 15 21.7
2019-Dec-12 08:25 031 5 gusting 10 21.1
2019-Dec-12 08:16 136 21.1
2019-Dec-12 08:10 017 21.1
2019-Dec-12 08:05 017 21.1
2019-Dec-12 07:55 027 21.1
2019-Dec-12 07:50 027 21.1
2019-Dec-12 07:40 026 21.1
2019-Dec-12 07:35 355 21.1
2019-Dec-12 07:30 006 21.1
2019-Dec-12 07:25 041 0 gusting 3 21.1
2019-Dec-12 07:20 038 0 gusting 6 21.1
2019-Dec-12 07:10 053 3 gusting 8 21.7
2019-Dec-12 07:05 009 4 gusting 13 21.7
2019-Dec-12 06:56 338 12 gusting 15 22.2
2019-Dec-12 06:50 025 2 gusting 6 22.8
2019-Dec-12 06:47 076 2 gusting 6 22.8
2019-Dec-12 06:41 038 1 gusting 5 22.8
2019-Dec-12 06:36 039 1 gusting 5 22.8
2019-Dec-12 06:32 036 1 gusting 5 22.8
2019-Dec-12 06:25 048 1 gusting 6 22.8
2019-Dec-12 06:20 015 2 gusting 5 22.8
2019-Dec-12 06:16 034 0 gusting 3 22.8
2019-Dec-12 06:10 039 1 gusting 3 22.8
2019-Dec-12 06:05 035 22.8
2019-Dec-12 06:01 011 1 gusting 3 22.8
2019-Dec-12 05:55 046 1 gusting 3 22.8
2019-Dec-12 05:50 009 1 gusting 4 22.8
2019-Dec-12 05:47 026 0 gusting 6 23.3
2019-Dec-12 05:40 028 0 gusting 9 23.3
2019-Dec-12 05:35 159 4 gusting 9 23.9
2019-Dec-12 05:31 004 23.9
2019-Dec-12 05:25 027 0 gusting 8 23.9
2019-Dec-12 05:20 016 4 gusting 8 23.9
2019-Dec-12 05:17 048 2 gusting 10 23.9
2019-Dec-12 05:10 010 4 gusting 10 23.9
2019-Dec-12 05:05 028 3 gusting 8 23.9
2019-Dec-12 05:01 029 3 gusting 8 23.9
2019-Dec-12 04:55 027 3 gusting 7 23.3
2019-Dec-12 04:50 031 3 gusting 6 23.3
2019-Dec-12 04:46 023 3 gusting 6 23.3
2019-Dec-12 04:40 065 3 gusting 6 23.3
2019-Dec-12 04:35 021 3 gusting 7 23.9
2019-Dec-12 04:30 007 4 gusting 10 23.9
2019-Dec-12 04:25 360 4 gusting 10 23.9
2019-Dec-12 04:20 023 6 gusting 12 23.9
2019-Dec-12 04:16 025 5 gusting 12 23.9
2019-Dec-12 04:10 072 6 gusting 9 23.3
2019-Dec-12 04:05 048 2 gusting 7 23.3
2019-Dec-12 04:01 055 3 gusting 7 23.3
2019-Dec-12 03:55 048 3 gusting 6 23.3
2019-Dec-12 03:50 016 2 gusting 4 23.3
2019-Dec-12 03:45 025 2 gusting 4 23.3
2019-Dec-12 03:40 024 23.3
2019-Dec-12 03:35 013 1 gusting 5 23.3
2019-Dec-12 03:30 015 1 gusting 5 23.3
2019-Dec-12 03:25 037 0 gusting 6 23.3
2019-Dec-12 03:20 069 3 gusting 6 23.3
2019-Dec-12 03:16 028 3 gusting 6 23.3
2019-Dec-12 03:10 033 3 gusting 5 23.3
2019-Dec-12 03:05 014 2 gusting 5 23.3
2019-Dec-12 03:00 052 1 gusting 7 23.3
2019-Dec-12 02:55 021 4 gusting 7 23.3
2019-Dec-12 02:50 286 3 gusting 11 23.3
2019-Dec-12 02:40 323 2 gusting 8 22.8
2019-Dec-12 02:35 039 0 gusting 4 22.8
2019-Dec-12 02:25 029 2 gusting 6 22.8
2019-Dec-12 02:20 032 2 gusting 6 22.8
2019-Dec-12 02:10 030 2 gusting 6 22.8
2019-Dec-12 02:05 057 3 gusting 5 22.8
2019-Dec-12 01:55 027 4 gusting 8 22.8
2019-Dec-12 01:50 038 4 gusting 8 22.8
2019-Dec-12 01:40 019 3 gusting 6 22.8
2019-Dec-12 01:35 025 1 gusting 6 22.8
2019-Dec-12 01:20 031 4 gusting 8 22.8
2019-Dec-12 01:10 027 22.8
2019-Dec-12 01:05 029 22.2
2019-Dec-12 00:55 024 22.2
2019-Dec-12 00:50 023 22.2
2019-Dec-12 00:40 002 22.2
2019-Dec-12 00:35 008 2 gusting 6 22.2
2019-Dec-12 00:25 014 1 gusting 6 22.2
2019-Dec-12 00:15 354 2 gusting 6 22.2
2019-Dec-12 00:10 035 2 gusting 7 22.2
2019-Dec-12 00:05 011 4 gusting 8 22.2
2019-Dec-11 23:55 034 4 gusting 7 22.2
2019-Dec-11 23:50 069 2 gusting 18 22.2
2019-Dec-11 23:40 066 11 gusting 19 23.3
2019-Dec-11 23:35 060 1 gusting 6 23.9
2019-Dec-11 23:25 006 0 gusting 5 23.9
2019-Dec-11 23:15 033 0 gusting 4 24.4
2019-Dec-11 23:10 039 0 gusting 4 24.4
2019-Dec-11 23:05 038 1 gusting 3 24.4
2019-Dec-11 23:00 039 24.4
2019-Dec-11 22:55 035 24.4
2019-Dec-11 22:50 034 24.4
2019-Dec-11 22:40 016 24.4
2019-Dec-11 22:35 045 0 gusting 6 24.4
2019-Dec-11 22:30 073 2 gusting 6 24.4
2019-Dec-11 22:25 319 4 gusting 10 24.4
2019-Dec-11 22:20 338 4 gusting 10 24.4
2019-Dec-11 22:15 032 0 gusting 4 24.4
2019-Dec-11 22:10 018 0 gusting 4 24.4
2019-Dec-11 22:05 056 1 gusting 4 24.4
2019-Dec-11 22:00 025 0 gusting 6 24.4
2019-Dec-11 21:55 021 2 gusting 8 24.4
2019-Dec-11 21:50 085 3 gusting 7 24.4
2019-Dec-11 21:45 028 2 gusting 8 25.0
2019-Dec-11 21:40 288 3 gusting 13 25.0
2019-Dec-11 21:35 070 3 gusting 13 25.0
2019-Dec-11 21:30 027 4 gusting 12 25.0
2019-Dec-11 21:25 326 5 gusting 12 25.6
2019-Dec-11 21:20 004 4 gusting 10 25.6
2019-Dec-11 21:10 356 2 gusting 10 25.6
2019-Dec-11 21:05 023 3 gusting 7 25.6
2019-Dec-11 21:00 352 2 gusting 6 25.6
2019-Dec-11 20:55 351 2 gusting 7 25.6
2019-Dec-11 20:50 129 1 gusting 7 25.6
2019-Dec-11 20:45 244 25.6
2019-Dec-11 20:40 039 3 gusting 9 25.6
2019-Dec-11 20:35 010 6 gusting 9 25.6
2019-Dec-11 20:26 028 4 gusting 8 25.6
2019-Dec-11 20:20 013 4 gusting 12 25.6
2019-Dec-11 20:17 086 5 gusting 13 25.6
2019-Dec-11 20:11 016 3 gusting 7 25.6
2019-Dec-11 20:06 220 1 gusting 8 25.6
2019-Dec-11 20:02 026 3 gusting 10 25.6
2019-Dec-11 19:55 357 3 gusting 10 25.6
2019-Dec-11 19:50 312 3 gusting 6 25.6
2019-Dec-11 19:47 098 25.0
2019-Dec-11 19:40 038 24.4
2019-Dec-11 19:35 032 0 gusting 5 23.9
2019-Dec-11 19:33 030 1 gusting 5 23.3
2019-Dec-11 19:25 006 1 gusting 3 23.3
2019-Dec-11 19:21 027 0 gusting 3 23.3
2019-Dec-11 19:17 356 0 gusting 8 23.3
2019-Dec-11 19:10 065 0 gusting 8 22.8
2019-Dec-11 19:06 032 4 gusting 24 22.8
2019-Dec-11 19:02 060 6 gusting 24 22.8
2019-Dec-11 18:55 007 1 gusting 10 23.9
2019-Dec-11 18:50 325 1 gusting 6 24.4
2019-Dec-11 18:46 071 24.4
2019-Dec-11 18:40 225 23.9
2019-Dec-11 18:35 245 2 gusting 6 23.9
2019-Dec-11 18:32 340 1 gusting 6 23.9
2019-Dec-11 18:25 041 2 gusting 6 23.9
2019-Dec-11 18:20 023 24.4
2019-Dec-11 18:17 044 23.3
2019-Dec-11 18:10 023 1 gusting 3 23.3
2019-Dec-11 18:05 023 0 gusting 3 23.3
2019-Dec-11 18:01 034 0 gusting 4 22.8
2019-Dec-11 17:55 326 0 gusting 4 22.8
2019-Dec-11 17:51 116 22.8
2019-Dec-11 17:48 079 1 gusting 4 22.2
2019-Dec-11 17:41 172 21.7
2019-Dec-11 17:35 195 21.7
2019-Dec-11 17:31 218 21.1
2019-Dec-11 17:25 015 21.1
2019-Dec-11 17:20 281 1 gusting 10 21.1
2019-Dec-11 17:16 025 5 gusting 26 21.7
2019-Dec-11 17:10 030 10 gusting 26 22.2
2019-Dec-11 17:05 011 14 gusting 35 22.8
2019-Dec-11 17:01 351 20 gusting 35 25.0
2019-Dec-11 16:55 311 7 gusting 17 28.3
2019-Dec-11 16:50 052 4 gusting 14 28.3
2019-Dec-11 16:46 052 6 gusting 15 28.3
2019-Dec-11 16:41 037 5 gusting 17 28.3
2019-Dec-11 16:35 012 11 gusting 17 28.3
2019-Dec-11 16:31 359 9 gusting 17 28.3
2019-Dec-11 16:26 044 10 gusting 17 27.8
2019-Dec-11 16:20 020 9 gusting 14 27.8
2019-Dec-11 16:17 086 5 gusting 13 27.8
2019-Dec-11 16:10 325 6 gusting 13 27.2
2019-Dec-11 16:05 012 4 gusting 13 26.7
2019-Dec-11 16:01 026 4 gusting 13 26.7
2019-Dec-11 15:55 015 5 gusting 14 27.2
2019-Dec-11 15:50 033 6 gusting 15 27.8
2019-Dec-11 15:46 038 8 gusting 17 27.8
2019-Dec-11 15:40 238 8 gusting 15 27.8
2019-Dec-11 15:35 337 5 gusting 15 27.8
2019-Dec-11 15:31 030 6 gusting 17 27.8
2019-Dec-11 15:25 027 7 gusting 17 27.8
2019-Dec-11 15:20 040 6 gusting 18 27.8
2019-Dec-11 15:15 063 9 gusting 21 27.2
2019-Dec-11 15:10 138 8 gusting 21 27.8
2019-Dec-11 15:05 050 7 gusting 16 28.3
2019-Dec-11 15:01 017 7 gusting 15 28.3
2019-Dec-11 14:55 283 6 gusting 15 28.3
2019-Dec-11 14:50 027 6 gusting 16 28.3
2019-Dec-11 14:47 016 9 gusting 16 28.3
2019-Dec-11 14:41 035 6 gusting 13 27.8
2019-Dec-11 14:35 025 3 gusting 14 27.8
2019-Dec-11 14:32 002 4 gusting 14 27.8
2019-Dec-11 14:25 021 6 gusting 13 27.8
2019-Dec-11 14:20 325 8 gusting 13 27.2
2019-Dec-11 14:16 023 5 gusting 11 27.2
2019-Dec-11 14:10 007 6 gusting 18 27.2
2019-Dec-11 14:05 030 9 gusting 18 27.8
2019-Dec-11 14:01 322 5 gusting 13 27.8
2019-Dec-11 13:55 044 5 gusting 11 27.2
2019-Dec-11 13:50 008 6 gusting 11 27.2
2019-Dec-11 13:46 327 4 gusting 13 27.2
2019-Dec-11 13:40 006 5 gusting 13 27.2
2019-Dec-11 13:35 027 6 gusting 10 26.7
2019-Dec-11 13:31 018 2 gusting 9 27.2
2019-Dec-11 13:25 046 3 gusting 7 26.7
2019-Dec-11 13:20 332 3 gusting 9 26.7
2019-Dec-11 13:16 057 6 gusting 9 26.7
2019-Dec-11 13:10 138 4 gusting 8 26.7
2019-Dec-11 13:05 052 1 gusting 5 26.7
2019-Dec-11 13:01 237 2 gusting 6 26.7
2019-Dec-11 12:55 266 1 gusting 6 26.7
2019-Dec-11 12:50 339 1 gusting 6 26.1
2019-Dec-11 12:45 296 1 gusting 7 26.1
2019-Dec-11 12:40 022 2 gusting 7 26.1
2019-Dec-11 12:35 011 3 gusting 6 25.6
2019-Dec-11 12:30 342 2 gusting 5 25.6
2019-Dec-11 12:25 031 2 gusting 5 25.6
2019-Dec-11 12:20 308 0 gusting 3 25.0
2019-Dec-11 12:10 034 24.4
2019-Dec-11 12:05 025 0 gusting 4 23.9
2019-Dec-11 12:00 037 0 gusting 2 23.9
2019-Dec-11 11:55 025 0 gusting 2 23.3
2019-Dec-11 11:45 353 0 gusting 3 23.3
2019-Dec-11 11:40 044 1 gusting 3 23.3
2019-Dec-11 11:35 032 0 gusting 2 23.3
2019-Dec-11 11:30 027 0 gusting 3 22.8
2019-Dec-11 11:25 340 1 gusting 5 22.8
2019-Dec-11 11:20 023 1 gusting 5 22.8
2019-Dec-11 11:15 068 1 gusting 2 22.8
2019-Dec-11 11:10 297 22.8
2019-Dec-11 11:02 029 22.8
2019-Dec-11 10:56 079 22.8
2019-Dec-11 10:50 047 22.8
2019-Dec-11 10:48 040 22.8
2019-Dec-11 10:41 018 0 gusting 1 22.8
2019-Dec-11 10:35 014 22.8
2019-Dec-11 10:32 039 22.8
2019-Dec-11 10:25 056 0 gusting 6 22.8
2019-Dec-11 10:21 035 2 gusting 9 22.8
2019-Dec-11 10:18 349 4 gusting 9 22.8
2019-Dec-11 10:11 017 3 gusting 6 22.2
2019-Dec-11 10:06 006 2 gusting 4 22.2
2019-Dec-11 10:03 037 1 gusting 4 22.2
2019-Dec-11 09:55 068 22.2
2019-Dec-11 09:51 080 22.2
2019-Dec-11 09:47 104 22.2
2019-Dec-11 09:41 119 22.2
2019-Dec-11 09:35 101 22.2
2019-Dec-11 09:32 105 22.2
2019-Dec-11 09:26 098 22.2
2019-Dec-11 09:20 191 22.2
2019-Dec-11 09:16 191 22.2
2019-Dec-11 09:11 187 22.2
2019-Dec-11 09:05 137 22.2
2019-Dec-11 09:02 349 22.8
2019-Dec-11 08:56 329 22.8
2019-Dec-11 08:50 330 22.8
2019-Dec-11 08:48 333 22.2
2019-Dec-11 08:40 321 22.2
2019-Dec-11 08:36 056 22.2
2019-Dec-11 08:32 139 22.2
2019-Dec-11 08:25 125 22.8
2019-Dec-11 08:20 115 22.8
2019-Dec-11 08:16 122 22.8
2019-Dec-11 08:10 198 22.8
2019-Dec-11 08:06 354 22.8
2019-Dec-11 08:01 357 22.8
2019-Dec-11 07:56 046 1 gusting 2 22.8
2019-Dec-11 07:50 020 22.8
2019-Dec-11 07:46 031 22.8
2019-Dec-11 07:40 041 22.8
2019-Dec-11 07:35 037 1 gusting 4 22.8
2019-Dec-11 07:31 023 1 gusting 2 22.8
2019-Dec-11 07:25 037 0 gusting 2 22.8
2019-Dec-11 07:20 035 22.8
2019-Dec-11 07:16 073 0 gusting 4 22.8
2019-Dec-11 07:10 011 22.8
2019-Dec-11 07:06 035 22.8
2019-Dec-11 07:02 026 0 gusting 4 23.3
2019-Dec-11 06:56 038 1 gusting 4 22.8
2019-Dec-11 06:51 034 1 gusting 5 22.8
2019-Dec-11 06:47 036 2 gusting 5 22.8
2019-Dec-11 06:40 022 0 gusting 4 22.8
2019-Dec-11 06:36 340 1 gusting 6 22.8
2019-Dec-11 06:31 060 1 gusting 9 23.3
2019-Dec-11 06:25 347 3 gusting 9 23.3
2019-Dec-11 06:20 007 4 gusting 9 23.3
2019-Dec-11 06:15 070 3 gusting 6 23.3
2019-Dec-11 06:10 092 3 gusting 6 23.3
2019-Dec-11 06:05 032 4 gusting 8 23.3
2019-Dec-11 06:00 030 3 gusting 8 23.3
2019-Dec-11 05:55 027 4 gusting 6 22.8
2019-Dec-11 05:45 351 2 gusting 4 22.8
2019-Dec-11 05:40 020 0 gusting 3 22.8
2019-Dec-11 05:35 039 1 gusting 3 22.8
2019-Dec-11 05:30 032 0 gusting 4 22.8
2019-Dec-11 05:25 011 1 gusting 4 22.8
2019-Dec-11 05:15 288 22.8
2019-Dec-11 05:05 017 1 gusting 6 23.3
2019-Dec-11 04:55 020 1 gusting 4 22.8
2019-Dec-11 04:50 047 0 gusting 3 22.8
2019-Dec-11 04:45 049 22.8
2019-Dec-11 04:40 031 23.3
2019-Dec-11 04:35 039 0 gusting 4 23.3
2019-Dec-11 04:30 029 1 gusting 5 23.3
2019-Dec-11 04:21 036 2 gusting 9 23.3
2019-Dec-11 04:18 001 5 gusting 9 23.3
2019-Dec-11 04:11 026 4 gusting 8 23.3
2019-Dec-11 04:06 071 2 gusting 7 22.8
2019-Dec-11 03:56 025 1 gusting 4 22.8
2019-Dec-11 03:51 076 22.8
2019-Dec-11 03:47 078 22.8
2019-Dec-11 03:40 078 23.3
2019-Dec-11 03:35 078 23.3
2019-Dec-11 03:34 078 23.3
2019-Dec-11 03:26 068 22.8
2019-Dec-11 03:20 022 0 gusting 2 22.8
2019-Dec-11 03:17 278 0 gusting 2 22.8
2019-Dec-11 03:11 290 22.8
2019-Dec-11 03:06 341 0 gusting 5 22.8
2019-Dec-11 02:56 105 4 gusting 6 22.8
2019-Dec-11 02:50 019 2 gusting 5 22.8
2019-Dec-11 02:47 072 1 gusting 3 22.8
2019-Dec-11 02:41 028 0 gusting 6 22.8
2019-Dec-11 02:35 027 2 gusting 5 22.8
2019-Dec-11 02:34 031 2 gusting 5 22.8
2019-Dec-11 02:26 030 1 gusting 4 22.8
2019-Dec-11 02:21 034 2 gusting 5 22.8
2019-Dec-11 02:18 027 2 gusting 6 22.8
2019-Dec-11 02:11 056 3 gusting 6 22.8
2019-Dec-11 02:06 013 3 gusting 9 22.8
2019-Dec-11 02:01 006 5 gusting 10 22.8
2019-Dec-11 01:55 019 6 gusting 13 22.8
2019-Dec-11 01:51 141 8 gusting 13 23.3
2019-Dec-11 01:48 031 6 gusting 11 23.9
2019-Dec-11 01:41 030 1 gusting 5 23.9
2019-Dec-11 01:36 016 1 gusting 4 23.9
2019-Dec-11 01:32 034 1 gusting 3 23.9
2019-Dec-11 01:25 025 0 gusting 2 23.9
2019-Dec-11 01:20 034 23.9
2019-Dec-11 01:19 032 23.9
2019-Dec-11 01:10 027 23.9
2019-Dec-11 01:05 037 23.9
2019-Dec-11 01:01 052 0 gusting 2 23.9
2019-Dec-11 00:55 032 0 gusting 2 23.9
2019-Dec-11 00:50 030 0 gusting 4 23.9
2019-Dec-11 00:47 039 0 gusting 4 23.9
2019-Dec-11 00:40 025 23.9
2019-Dec-11 00:35 035 23.9
2019-Dec-11 00:33 307 23.9
2019-Dec-11 00:26 306 0 gusting 4 23.9
2019-Dec-11 00:20 223 0 gusting 4 23.9
2019-Dec-11 00:16 304 1 gusting 3 24.4
2019-Dec-11 00:10 068 24.4
2019-Dec-11 00:06 022 24.4
2019-Dec-11 00:01 031 0 gusting 3 24.4
2019-Dec-10 23:55 024 0 gusting 6 24.4
2019-Dec-10 23:51 019 1 gusting 6 24.4
2019-Dec-10 23:48 013 2 gusting 7 24.4
2019-Dec-10 23:40 022 4 gusting 7 24.4
2019-Dec-10 23:35 056 2 gusting 8 24.4
2019-Dec-10 23:31 311 1 gusting 8 24.4
2019-Dec-10 23:26 038 2 gusting 7 24.4
2019-Dec-10 23:20 020 3 gusting 7 24.4
2019-Dec-10 23:17 031 4 gusting 8 23.9
2019-Dec-10 23:10 014 4 gusting 8 23.9
2019-Dec-10 23:05 357 3 gusting 9 23.9
2019-Dec-10 23:02 007 4 gusting 10 23.9
2019-Dec-10 22:55 011 5 gusting 10 23.9
2019-Dec-10 22:50 358 4 gusting 8 23.9
2019-Dec-10 22:47 067 5 gusting 12 23.9
2019-Dec-10 22:40 086 4 gusting 13 23.9
2019-Dec-10 22:35 345 8 gusting 13 23.9
2019-Dec-10 22:32 357 4 gusting 12 24.4
2019-Dec-10 22:25 280 5 gusting 12 24.4
2019-Dec-10 22:20 040 3 gusting 13 24.4
2019-Dec-10 22:16 320 3 gusting 13 24.4
2019-Dec-10 22:10 292 3 gusting 8 24.4
2019-Dec-10 22:06 288 1 gusting 7 24.4
2019-Dec-10 22:02 026 1 gusting 7 24.4
2019-Dec-10 21:55 290 1 gusting 7 24.4
2019-Dec-10 21:50 063 4 gusting 10 24.4
2019-Dec-10 21:46 022 4 gusting 11 25.0
2019-Dec-10 21:41 018 5 gusting 11 25.0
2019-Dec-10 21:35 358 5 gusting 13 25.0
2019-Dec-10 21:31 001 7 gusting 13 26.1
2019-Dec-10 21:25 011 2 gusting 11 26.7
2019-Dec-10 21:20 014 5 gusting 9 26.7
2019-Dec-10 21:17 086 4 gusting 8 26.1
2019-Dec-10 21:10 044 4 gusting 10 26.1
2019-Dec-10 21:05 020 4 gusting 10 26.1
2019-Dec-10 21:01 008 3 gusting 14 26.1
2019-Dec-10 20:55 038 6 gusting 14 26.1
2019-Dec-10 20:51 284 5 gusting 13 26.1
2019-Dec-10 20:47 252 8 gusting 13 26.1
2019-Dec-10 20:40 350 5 gusting 13 26.1
2019-Dec-10 20:35 001 5 gusting 13 26.1
2019-Dec-10 20:30 309 5 gusting 13 26.1
2019-Dec-10 20:25 038 7 gusting 19 26.1
2019-Dec-10 20:20 017 9 gusting 19 26.1
2019-Dec-10 20:17 074 9 gusting 17 26.1
2019-Dec-10 20:11 295 4 gusting 19 26.7
2019-Dec-10 20:05 312 8 gusting 19 27.2
2019-Dec-10 20:02 349 6 gusting 19 27.8
2019-Dec-10 19:55 351 10 gusting 17 27.8
2019-Dec-10 19:50 237 6 gusting 20 27.8
2019-Dec-10 19:47 330 12 gusting 22 27.8
2019-Dec-10 19:40 045 10 gusting 22 27.8
2019-Dec-10 19:36 063 8 gusting 19 27.8
2019-Dec-10 19:31 072 10 gusting 19 27.8
2019-Dec-10 19:26 020 7 gusting 19 27.8
2019-Dec-10 19:20 048 10 gusting 19 27.8
2019-Dec-10 19:16 323 12 gusting 18 28.3
2019-Dec-10 19:10 330 8 gusting 16 27.8
2019-Dec-10 19:05 275 9 gusting 15 27.8
2019-Dec-10 19:01 020 9 gusting 15 27.2
2019-Dec-10 18:55 277 5 gusting 19 27.2
2019-Dec-10 18:50 358 8 gusting 19 27.2
2019-Dec-10 18:48 227 8 gusting 14 27.2
2019-Dec-10 18:40 355 5 gusting 13 27.2
2019-Dec-10 18:35 058 5 gusting 11 27.2
2019-Dec-10 18:32 023 4 gusting 8 27.2
2019-Dec-10 18:25 293 1 gusting 6 26.7
2019-Dec-10 18:20 333 0 gusting 8 26.7
2019-Dec-10 18:16 013 3 gusting 6 26.1
2019-Dec-10 18:11 044 1 gusting 6 26.1
2019-Dec-10 18:05 002 1 gusting 8 25.6
2019-Dec-10 18:02 298 3 gusting 8 25.6